Location: D�derode
(51.8092°N, 10.1065°E)
Time: 16:53:03
(UTC+00:00)

deb NNS O-19 - Visible Passes

Search period start: 24 June 2021 00:00
Search period end: 04 July 2021 00:00
Orbit: 802 x 841 km, 89.9° (Epoch: 24 June)

Date Brightness Start Highest point End Pass type
(mag) Time Alt. Az. Time Alt. Az. Time Alt. Az.
24 Jun ? 00:36:23 10° WSW 00:40:12 19° WNW 00:43:59 10° NNW visible
24 Jun ? 20:56:22 10° ENE 20:57:50 11° ENE 20:59:18 10° NE visible
24 Jun ? 22:34:12 20° SSE 22:37:56 60° E 22:43:17 10° N visible
25 Jun ? 00:15:36 12° SW 00:19:34 25° WNW 00:23:59 10° NNW visible
25 Jun ? 22:13:45 17° SE 22:17:37 45° E 22:22:45 10° N visible
25 Jun ? 23:55:09 15° SW 23:58:58 32° W 00:03:50 10° NNW visible
26 Jun ? 21:53:18 14° SE 21:57:19 34° ENE 22:02:09 10° NNE visible
26 Jun ? 23:34:42 18° SSW 23:38:26 42° W 23:43:36 10° NNW visible
27 Jun ? 21:32:51 11° SE 21:37:04 26° ENE 21:41:29 10° NNE visible
27 Jun ? 23:14:15 20° SSW 23:17:57 56° W 23:23:17 10° N visible
28 Jun ? 21:12:59 10° ESE 21:16:51 20° ENE 21:20:41 10° NNE visible
28 Jun ? 22:53:48 21° S 22:57:29 75° W 23:02:55 10° N visible
29 Jun ? 00:37:04 10° W 00:39:41 13° WNW 00:42:19 10° NW visible
29 Jun ? 20:53:38 10° E 20:56:41 15° ENE 20:59:43 10° NNE visible
29 Jun ? 22:33:20 21° S 22:37:04 83° E 22:42:30 10° N visible
30 Jun ? 00:15:22 10° WSW 00:19:00 18° WNW 00:22:38 10° NNW visible
30 Jun ? 20:34:50 10° E 20:36:33 11° ENE 20:38:16 10° NE visible
30 Jun ? 22:12:52 19° SSE 22:16:41 63° E 22:22:02 10° N visible
30 Jun ? 23:54:16 11° SW 23:58:21 23° WNW 00:02:39 10° NNW visible
01 Jul ? 21:52:25 17° SSE 21:56:21 47° E 22:01:30 10° N visible
01 Jul ? 23:33:48 14° SW 23:37:46 31° W 23:42:32 10° NNW visible
02 Jul ? 21:31:57 14° SE 21:36:03 35° ENE 21:40:55 10° NNE visible
02 Jul ? 23:13:20 16° SSW 23:17:13 40° W 23:22:18 10° NNW visible
03 Jul ? 21:11:29 11° SE 21:15:48 27° ENE 21:20:15 10° NNE visible
03 Jul ? 22:52:52 19° SSW 22:56:42 54° W 23:02:00 10° N visible
